EFW3CU EGKK-LEMH

Flight info

Callsign EFW3CU
Flight time 1h 49m
Altitude 35000
Route SFD Y47 BENBO UY47 DRAKE L151 SITET UN859 SOPIL DCT BALAN DCT EVPOK DCT NARAK DCT GAI DCT LOMRA DCT ROCAN DCT GEANT DCT GIR DCT SALON DCT SULID DCT DIPES N727 SARGO
Aircraft A320/M-SDE3FGHIRWY/LB1

Departure

Time 2026-05-05 15:06
Airport London Gatwick Airport (EGKK)

Arrival

Time 2026-05-05 16:55
Airport Menorca Airport (LEMH)
Time Latitude Longitude Altitude Speed Heading
2026-05-05 14:05 51.15746 -0.16858 204 ft 0 kts 31°
2026-05-05 14:46 51.15732 -0.16872 215 ft 4 kts 31°
2026-05-05 14:46 51.15709 -0.16894 212 ft 4 kts 31°
2026-05-05 14:46 51.15690 -0.16913 214 ft 4 kts 27°
2026-05-05 14:47 51.15670 -0.16920 214 ft 4 kts 317°
2026-05-05 14:47 51.15664 -0.16890 214 ft 4 kts 257°
2026-05-05 14:47 51.15667 -0.16862 210 ft 0 kts 257°
2026-05-05 14:54 51.15666 -0.16869 210 ft 2 kts 257°
2026-05-05 14:54 51.15662 -0.16903 210 ft 4 kts 257°
2026-05-05 14:54 51.15653 -0.16964 208 ft 7 kts 257°
2026-05-05 14:54 51.15642 -0.17049 204 ft 9 kts 257°
2026-05-05 14:55 51.15627 -0.17157 208 ft 11 kts 257°
2026-05-05 14:55 51.15615 -0.17242 211 ft 12 kts 257°
2026-05-05 14:55 51.15598 -0.17360 210 ft 5 kts 253°
2026-05-05 14:55 51.15581 -0.17419 209 ft 7 kts 237°
2026-05-05 14:56 51.15545 -0.17485 208 ft 9 kts 243°
2026-05-05 14:56 51.15527 -0.17589 209 ft 11 kts 257°
2026-05-05 14:56 51.15510 -0.17717 206 ft 13 kts 257°
2026-05-05 14:56 51.15489 -0.17867 212 ft 15 kts 257°
2026-05-05 14:57 51.15469 -0.18007 208 ft 12 kts 257°
2026-05-05 14:57 51.15455 -0.18109 208 ft 9 kts 257°
2026-05-05 14:57 51.15441 -0.18213 208 ft 7 kts 258°
2026-05-05 14:57 51.15412 -0.18275 205 ft 8 kts 195°
2026-05-05 14:58 51.15349 -0.18261 204 ft 10 kts 168°
2026-05-05 14:58 51.15269 -0.18234 210 ft 13 kts 167°
2026-05-05 14:58 51.15201 -0.18238 215 ft 9 kts 219°
2026-05-05 14:58 51.15184 -0.18337 208 ft 5 kts 258°
2026-05-05 14:59 51.15177 -0.18390 206 ft 6 kts 257°
2026-05-05 14:59 51.15166 -0.18469 207 ft 8 kts 258°
2026-05-05 14:59 51.15152 -0.18571 205 ft 10 kts 258°
2026-05-05 14:59 51.15136 -0.18694 203 ft 13 kts 257°
2026-05-05 15:00 51.15115 -0.18841 214 ft 15 kts 258°
2026-05-05 15:00 51.15100 -0.18949 210 ft 16 kts 257°
2026-05-05 15:00 51.15069 -0.19176 209 ft 12 kts 257°
2026-05-05 15:00 51.15042 -0.19259 204 ft 8 kts 212°
2026-05-05 15:01 51.14987 -0.19264 206 ft 8 kts 188°
2026-05-05 15:01 51.14958 -0.19331 207 ft 9 kts 260°
2026-05-05 15:01 51.14941 -0.19436 215 ft 11 kts 257°
2026-05-05 15:01 51.14923 -0.19571 209 ft 13 kts 258°
2026-05-05 15:02 51.14902 -0.19724 209 ft 15 kts 257°
2026-05-05 15:02 51.14877 -0.19902 206 ft 18 kts 258°
2026-05-05 15:02 51.14849 -0.20106 208 ft 16 kts 257°
2026-05-05 15:02 51.14824 -0.20294 213 ft 18 kts 258°
2026-05-05 15:03 51.14799 -0.20466 212 ft 12 kts 257°
2026-05-05 15:03 51.14783 -0.20583 212 ft 11 kts 258°
2026-05-05 15:03 51.14762 -0.20700 206 ft 8 kts 229°
2026-05-05 15:03 51.14708 -0.20714 208 ft 8 kts 168°
2026-05-05 15:04 51.14647 -0.20695 209 ft 10 kts 169°
2026-05-05 15:04 51.14616 -0.20683 205 ft 4 kts 153°
2026-05-05 15:04 51.14601 -0.20631 209 ft 7 kts 96°
2026-05-05 15:04 51.14606 -0.20538 205 ft 11 kts 77°
2026-05-05 15:05 51.14753 -0.19471 209 ft 107 kts 77°
2026-05-05 15:05 51.14956 -0.17990 208 ft 156 kts 78°
2026-05-05 15:05 51.15207 -0.16240 549 ft 171 kts 77°
2026-05-05 15:06 51.15466 -0.14400 1274 ft 171 kts 75°
2026-05-05 15:06 51.15724 -0.12487 1723 ft 186 kts 76°
2026-05-05 15:06 51.16008 -0.10366 2106 ft 205 kts 77°
2026-05-05 15:06 51.16236 -0.08020 2662 ft 220 kts 89°
2026-05-05 15:07 51.15761 -0.05680 3430 ft 237 kts 123°
2026-05-05 15:07 51.14366 -0.04051 3872 ft 266 kts 158°
2026-05-05 15:07 51.12527 -0.03384 4724 ft 276 kts 171°
2026-05-05 15:07 51.10605 -0.03078 5711 ft 279 kts 174°
2026-05-05 15:08 51.08656 -0.02842 6633 ft 282 kts 174°
2026-05-05 15:08 51.06695 -0.02491 7534 ft 284 kts 168°
2026-05-05 15:08 51.04762 -0.01734 8365 ft 289 kts 163°
2026-05-05 15:08 51.02839 -0.00767 9243 ft 291 kts 161°
2026-05-05 15:09 51.00914 0.00268 10118 ft 293 kts 161°
2026-05-05 15:09 50.98971 0.01303 10892 ft 296 kts 161°
2026-05-05 15:09 50.96992 0.02317 11641 ft 300 kts 161°
2026-05-05 15:09 50.94966 0.03321 12409 ft 303 kts 162°
2026-05-05 15:10 50.92940 0.04300 13158 ft 306 kts 162°
2026-05-05 15:10 50.90891 0.05272 13867 ft 310 kts 161°
2026-05-05 15:10 50.88813 0.06247 14511 ft 313 kts 162°
2026-05-05 15:10 50.86717 0.07224 15182 ft 315 kts 162°
2026-05-05 15:11 50.84605 0.08206 15854 ft 318 kts 162°
2026-05-05 15:11 50.82473 0.09196 16507 ft 321 kts 162°
2026-05-05 15:11 50.80321 0.10199 17140 ft 324 kts 162°
2026-05-05 15:11 50.78142 0.11194 17780 ft 328 kts 166°
2026-05-05 15:12 50.75867 0.11650 18392 ft 332 kts 179°
2026-05-05 15:12 50.73512 0.11312 18566 ft 350 kts 192°
2026-05-05 15:12 50.71077 0.10413 18695 ft 368 kts 192°
2026-05-05 15:12 50.68532 0.09470 18891 ft 382 kts 193°
2026-05-05 15:13 50.65921 0.08511 19341 ft 388 kts 192°
2026-05-05 15:13 50.63281 0.07550 19898 ft 392 kts 192°
2026-05-05 15:13 50.60611 0.06588 20461 ft 395 kts 192°
2026-05-05 15:13 50.57921 0.05620 20992 ft 398 kts 192°
2026-05-05 15:14 50.55208 0.04649 21513 ft 402 kts 192°
2026-05-05 15:14 50.52432 0.03652 22071 ft 405 kts 192°
2026-05-05 15:14 50.49714 0.02673 22596 ft 408 kts 193°
2026-05-05 15:14 50.46939 0.01674 23117 ft 411 kts 192°
2026-05-05 15:15 50.44138 0.00666 23584 ft 415 kts 192°
2026-05-05 15:15 50.41319 -0.00350 24054 ft 416 kts 192°
2026-05-05 15:15 50.38496 -0.01366 24523 ft 417 kts 192°
2026-05-05 15:15 50.35664 -0.02382 24979 ft 418 kts 192°
2026-05-05 15:16 50.32830 -0.03393 25446 ft 418 kts 192°
2026-05-05 15:16 50.29990 -0.04402 25906 ft 419 kts 192°
2026-05-05 15:16 50.27145 -0.05412 26332 ft 420 kts 192°
2026-05-05 15:16 50.24270 -0.06210 26754 ft 420 kts 184°
2026-05-05 15:17 50.21349 -0.06253 27172 ft 420 kts 174°
2026-05-05 15:17 50.18469 -0.05495 27596 ft 421 kts 164°
2026-05-05 15:17 50.15707 -0.03975 27993 ft 422 kts 155°
2026-05-05 15:17 50.13029 -0.02087 28394 ft 423 kts 155°
2026-05-05 15:18 50.10322 -0.00265 28784 ft 425 kts 159°
2026-05-05 15:18 50.07483 0.01014 29208 ft 425 kts 165°
2026-05-05 15:18 50.04607 0.02124 29612 ft 426 kts 165°
2026-05-05 15:18 50.01727 0.03247 29996 ft 427 kts 165°
2026-05-05 15:19 49.98841 0.04379 30326 ft 428 kts 165°
2026-05-05 15:19 49.95958 0.05518 30747 ft 427 kts 165°
2026-05-05 15:19 49.93084 0.06659 31176 ft 426 kts 165°
2026-05-05 15:19 49.90214 0.07795 31574 ft 426 kts 165°
2026-05-05 15:20 49.87346 0.08923 32003 ft 424 kts 165°
2026-05-05 15:20 49.84489 0.10044 32461 ft 423 kts 165°
2026-05-05 15:20 49.81643 0.11159 32895 ft 422 kts 165°
2026-05-05 15:20 49.78802 0.12267 33339 ft 420 kts 165°
2026-05-05 15:21 49.75969 0.13367 33790 ft 419 kts 165°
2026-05-05 15:21 49.73142 0.14463 34171 ft 418 kts 165°
2026-05-05 15:21 49.70322 0.15561 34508 ft 418 kts 165°
2026-05-05 15:21 49.67494 0.16662 34767 ft 420 kts 165°
2026-05-05 15:22 49.64661 0.17783 34892 ft 421 kts 165°
2026-05-05 15:22 49.58973 0.20078 34920 ft 423 kts 165°
2026-05-05 15:23 49.53289 0.22386 34922 ft 423 kts 165°
2026-05-05 15:23 49.47578 0.24691 34918 ft 425 kts 164°
2026-05-05 15:24 49.41855 0.26980 34893 ft 425 kts 164°
2026-05-05 15:24 49.36127 0.29261 34898 ft 425 kts 165°
2026-05-05 15:25 49.30397 0.31543 34901 ft 426 kts 164°
2026-05-05 15:25 49.24678 0.33917 34902 ft 426 kts 163°
2026-05-05 15:26 49.18968 0.36351 34897 ft 426 kts 163°
2026-05-05 15:26 49.13256 0.38781 34894 ft 426 kts 163°
2026-05-05 15:27 49.07536 0.41185 34901 ft 426 kts 163°
2026-05-05 15:27 49.01809 0.43572 34891 ft 427 kts 163°
2026-05-05 15:28 48.96068 0.45969 34882 ft 428 kts 163°
2026-05-05 15:28 48.90320 0.48356 34882 ft 428 kts 163°
2026-05-05 15:29 48.84570 0.50752 34885 ft 429 kts 163°
2026-05-05 15:29 48.78813 0.53129 34883 ft 429 kts 163°
2026-05-05 15:30 48.73041 0.55447 34880 ft 429 kts 164°
2026-05-05 15:30 48.67256 0.57692 34883 ft 429 kts 164°
2026-05-05 15:31 48.62444 0.59545 34891 ft 429 kts 164°
2026-05-05 15:31 48.56616 0.61806 34889 ft 429 kts 164°
2026-05-05 15:32 48.50832 0.64070 34886 ft 429 kts 164°
2026-05-05 15:32 48.45061 0.66407 34881 ft 429 kts 163°
2026-05-05 15:33 48.39295 0.68784 34885 ft 430 kts 163°
2026-05-05 15:33 48.33523 0.71134 34873 ft 430 kts 163°
2026-05-05 15:34 48.27742 0.73463 34864 ft 430 kts 163°
2026-05-05 15:34 48.21962 0.75779 34861 ft 430 kts 164°
2026-05-05 15:35 48.16174 0.78059 34858 ft 430 kts 164°
2026-05-05 15:35 48.10377 0.80323 34849 ft 431 kts 164°
2026-05-05 15:36 48.04577 0.82597 34842 ft 431 kts 164°
2026-05-05 15:36 47.98775 0.84859 34824 ft 431 kts 164°
2026-05-05 15:37 47.92968 0.87132 34823 ft 432 kts 164°
2026-05-05 15:37 47.87154 0.89397 34831 ft 432 kts 164°
2026-05-05 15:38 47.81339 0.91654 34832 ft 432 kts 164°
2026-05-05 15:38 47.75518 0.93910 34834 ft 433 kts 165°
2026-05-05 15:39 47.69686 0.96156 34840 ft 433 kts 165°
2026-05-05 15:39 47.63845 0.98398 34842 ft 434 kts 165°
2026-05-05 15:40 47.57997 1.00650 34849 ft 434 kts 165°
2026-05-05 15:40 47.52148 1.02901 34862 ft 435 kts 165°
2026-05-05 15:41 47.46295 1.05156 34868 ft 434 kts 165°
2026-05-05 15:41 47.40334 1.06401 34866 ft 435 kts 180°
2026-05-05 15:42 47.34282 1.06231 34877 ft 435 kts 180°
2026-05-05 15:42 47.28233 1.06095 34878 ft 435 kts 180°
2026-05-05 15:43 47.22229 1.05967 34879 ft 435 kts 180°
2026-05-05 15:43 47.16184 1.05831 34874 ft 434 kts 180°
2026-05-05 15:44 47.10139 1.05681 34877 ft 434 kts 180°
2026-05-05 15:44 47.04099 1.05541 34875 ft 434 kts 180°
2026-05-05 15:45 46.98053 1.05362 34875 ft 434 kts 181°
2026-05-05 15:45 46.92014 1.05081 34873 ft 434 kts 181°
2026-05-05 15:46 46.85939 1.04791 34876 ft 434 kts 181°
2026-05-05 15:46 46.79904 1.04529 34875 ft 434 kts 181°
2026-05-05 15:47 46.73873 1.04280 34878 ft 434 kts 181°
2026-05-05 15:47 46.67839 1.04021 34879 ft 434 kts 181°
2026-05-05 15:48 46.61808 1.03760 34876 ft 434 kts 181°
2026-05-05 15:48 46.55776 1.03519 34885 ft 434 kts 181°
2026-05-05 15:49 46.49767 1.03963 34879 ft 434 kts 168°
2026-05-05 15:49 46.43883 1.05923 34878 ft 434 kts 167°
2026-05-05 15:50 46.37996 1.07891 34884 ft 434 kts 167°
2026-05-05 15:50 46.32111 1.09859 34895 ft 434 kts 168°
2026-05-05 15:51 46.26221 1.11812 34895 ft 435 kts 167°
2026-05-05 15:51 46.20325 1.13768 34908 ft 435 kts 168°
2026-05-05 15:52 46.14430 1.15727 34915 ft 435 kts 168°
2026-05-05 15:52 46.08536 1.17669 34926 ft 435 kts 168°
2026-05-05 15:53 46.02637 1.19605 34921 ft 435 kts 168°
2026-05-05 15:53 45.96741 1.21544 34926 ft 435 kts 168°
2026-05-05 15:54 45.90841 1.23487 34928 ft 435 kts 168°
2026-05-05 15:54 45.84941 1.25425 34933 ft 435 kts 168°
2026-05-05 15:55 45.79039 1.27358 34934 ft 435 kts 168°
2026-05-05 15:55 45.73136 1.29287 34931 ft 435 kts 169°
2026-05-05 15:56 45.67229 1.31215 34937 ft 436 kts 169°
2026-05-05 15:56 45.61318 1.33129 34939 ft 436 kts 169°
2026-05-05 15:57 45.55364 1.35053 34939 ft 436 kts 169°
2026-05-05 15:57 45.49447 1.36971 34940 ft 436 kts 169°
2026-05-05 15:58 45.43560 1.38878 34942 ft 437 kts 169°
2026-05-05 15:58 45.37631 1.40786 34944 ft 437 kts 169°
2026-05-05 15:59 45.31699 1.42688 34944 ft 437 kts 169°
2026-05-05 15:59 45.25768 1.44584 34945 ft 437 kts 169°
2026-05-05 16:00 45.19840 1.46481 34939 ft 437 kts 169°
2026-05-05 16:00 45.13917 1.48380 34936 ft 436 kts 170°
2026-05-05 16:01 45.07998 1.50269 34942 ft 436 kts 170°
2026-05-05 16:01 45.02084 1.52149 34941 ft 435 kts 170°
2026-05-05 16:02 44.96136 1.54027 34945 ft 435 kts 171°
2026-05-05 16:02 44.90236 1.55888 34957 ft 434 kts 171°
2026-05-05 16:03 44.84344 1.57754 34960 ft 434 kts 170°
2026-05-05 16:03 44.78456 1.59619 34961 ft 433 kts 171°
2026-05-05 16:04 44.72613 1.61466 34958 ft 433 kts 171°
2026-05-05 16:04 44.66731 1.63307 34955 ft 433 kts 171°
2026-05-05 16:05 44.60849 1.65142 34951 ft 433 kts 171°
2026-05-05 16:05 44.54973 1.66977 34953 ft 432 kts 171°
2026-05-05 16:06 44.49099 1.68813 34958 ft 432 kts 171°
2026-05-05 16:06 44.43199 1.70657 34957 ft 432 kts 171°
2026-05-05 16:07 44.37342 1.72471 34952 ft 431 kts 171°
2026-05-05 16:07 44.31491 1.74283 34957 ft 430 kts 171°
2026-05-05 16:08 44.25634 1.75935 34958 ft 428 kts 174°
2026-05-05 16:08 44.19787 1.77172 34945 ft 427 kts 175°
2026-05-05 16:09 44.13905 1.78349 34953 ft 427 kts 175°
2026-05-05 16:09 44.08028 1.79618 34954 ft 427 kts 174°
2026-05-05 16:10 44.03113 1.80719 34958 ft 427 kts 174°
2026-05-05 16:10 43.97247 1.82028 34953 ft 426 kts 175°
2026-05-05 16:11 43.91380 1.83048 34960 ft 424 kts 179°
2026-05-05 16:12 43.79640 1.83945 34952 ft 422 kts 181°
2026-05-05 16:13 43.64958 1.85378 34961 ft 421 kts 180°
2026-05-05 16:13 43.59150 1.85948 34951 ft 421 kts 181°
2026-05-05 16:14 43.47476 1.87058 34956 ft 420 kts 181°
2026-05-05 16:15 43.35783 1.88172 34947 ft 419 kts 181°
2026-05-05 16:16 43.24146 1.89282 34961 ft 419 kts 181°
2026-05-05 16:17 43.15438 1.90118 34964 ft 418 kts 181°
2026-05-05 16:18 43.06749 1.90952 34937 ft 417 kts 182°
2026-05-05 16:19 42.98143 1.91779 34944 ft 406 kts 182°
2026-05-05 16:19 42.89782 1.92573 34942 ft 399 kts 183°
2026-05-05 16:20 42.78691 1.93599 34942 ft 400 kts 183°
2026-05-05 16:22 42.65015 1.97417 34943 ft 429 kts 155°
2026-05-05 16:23 42.55634 2.07857 34910 ft 437 kts 149°
2026-05-05 16:23 42.48597 2.15757 34906 ft 438 kts 149°
2026-05-05 16:24 42.43901 2.21002 34916 ft 438 kts 150°
2026-05-05 16:25 42.36852 2.28877 34881 ft 438 kts 150°
2026-05-05 16:25 42.29806 2.36733 34879 ft 438 kts 150°
2026-05-05 16:26 42.20379 2.47188 34894 ft 438 kts 150°
2026-05-05 16:27 42.15659 2.52404 34885 ft 439 kts 150°
2026-05-05 16:27 42.10932 2.57620 34892 ft 440 kts 150°
2026-05-05 16:28 42.06199 2.62837 34899 ft 440 kts 150°
2026-05-05 16:28 42.01456 2.68048 34869 ft 440 kts 150°
2026-05-05 16:29 41.96716 2.73245 34894 ft 440 kts 150°
2026-05-05 16:29 41.91964 2.78401 34886 ft 437 kts 153°
2026-05-05 16:30 41.87081 2.83197 34900 ft 433 kts 155°
2026-05-05 16:30 41.82130 2.87783 34908 ft 432 kts 155°
2026-05-05 16:31 41.77196 2.92391 34913 ft 433 kts 155°
2026-05-05 16:31 41.72285 2.97062 34894 ft 433 kts 155°
2026-05-05 16:32 41.67381 3.01748 34896 ft 433 kts 155°
2026-05-05 16:32 41.62470 3.06421 34864 ft 433 kts 155°
2026-05-05 16:33 41.57549 3.11077 34731 ft 433 kts 155°
2026-05-05 16:33 41.55125 3.13367 34488 ft 432 kts 155°
2026-05-05 16:33 41.52679 3.15679 34250 ft 431 kts 155°
2026-05-05 16:34 41.50236 3.17985 33970 ft 430 kts 155°
2026-05-05 16:34 41.47779 3.20235 33710 ft 427 kts 158°
2026-05-05 16:34 41.45286 3.22364 33438 ft 425 kts 159°
2026-05-05 16:34 41.42763 3.24412 33168 ft 424 kts 160°
2026-05-05 16:35 41.40228 3.26427 32911 ft 425 kts 160°
2026-05-05 16:35 41.37687 3.28444 32642 ft 426 kts 160°
2026-05-05 16:35 41.35143 3.30480 32387 ft 426 kts 160°
2026-05-05 16:35 41.32612 3.32533 32122 ft 426 kts 159°
2026-05-05 16:36 41.30100 3.34595 31767 ft 422 kts 159°
2026-05-05 16:36 41.27619 3.36646 31224 ft 418 kts 159°
2026-05-05 16:36 41.25159 3.38679 30694 ft 414 kts 159°
2026-05-05 16:36 41.22718 3.40684 30162 ft 411 kts 160°
2026-05-05 16:37 41.20291 3.42665 29580 ft 408 kts 160°
2026-05-05 16:37 41.17886 3.44625 29053 ft 404 kts 159°
2026-05-05 16:37 41.15501 3.46567 28526 ft 400 kts 159°
2026-05-05 16:37 41.13139 3.48485 28010 ft 396 kts 159°
2026-05-05 16:38 41.10796 3.50382 27489 ft 393 kts 159°
2026-05-05 16:38 41.08467 3.52264 26999 ft 391 kts 159°
2026-05-05 16:38 41.06153 3.54131 26494 ft 388 kts 159°
2026-05-05 16:38 41.03851 3.55988 26014 ft 387 kts 159°
2026-05-05 16:39 41.01555 3.57842 25550 ft 386 kts 159°
2026-05-05 16:39 40.99268 3.59690 25075 ft 385 kts 158°
2026-05-05 16:39 40.96986 3.61537 24613 ft 384 kts 158°
2026-05-05 16:39 40.94704 3.63381 24164 ft 384 kts 158°
2026-05-05 16:40 40.92427 3.65219 23717 ft 383 kts 158°
2026-05-05 16:40 40.90150 3.67055 23230 ft 383 kts 158°
2026-05-05 16:40 40.87885 3.68881 22763 ft 380 kts 158°
2026-05-05 16:40 40.85639 3.70697 22316 ft 377 kts 157°
2026-05-05 16:41 40.83413 3.72496 21849 ft 374 kts 158°
2026-05-05 16:41 40.81201 3.74278 21397 ft 371 kts 157°
2026-05-05 16:41 40.79006 3.76040 20932 ft 368 kts 157°
2026-05-05 16:41 40.76825 3.77784 20458 ft 366 kts 157°
2026-05-05 16:42 40.74657 3.79520 19984 ft 363 kts 156°
2026-05-05 16:42 40.72502 3.81245 19491 ft 361 kts 156°
2026-05-05 16:42 40.70360 3.82963 19019 ft 359 kts 156°
2026-05-05 16:42 40.68227 3.84669 18535 ft 358 kts 155°
2026-05-05 16:43 40.66100 3.86368 18021 ft 357 kts 155°
2026-05-05 16:43 40.63983 3.88063 17500 ft 355 kts 155°
2026-05-05 16:43 40.61883 3.89742 17023 ft 352 kts 155°
2026-05-05 16:43 40.59801 3.91407 16541 ft 349 kts 155°
2026-05-05 16:44 40.57735 3.93056 16066 ft 346 kts 155°
2026-05-05 16:44 40.55684 3.94686 15583 ft 343 kts 155°
2026-05-05 16:44 40.53647 3.96305 15102 ft 341 kts 155°
2026-05-05 16:44 40.51622 3.97913 14635 ft 339 kts 155°
2026-05-05 16:45 40.49542 3.99290 14164 ft 331 kts 165°
2026-05-05 16:45 40.47358 4.00143 13704 ft 326 kts 170°
2026-05-05 16:45 40.45175 4.00912 13210 ft 323 kts 169°
2026-05-05 16:45 40.43015 4.01678 12746 ft 320 kts 169°
2026-05-05 16:46 40.40876 4.02438 12309 ft 317 kts 169°
2026-05-05 16:46 40.38755 4.03190 11857 ft 314 kts 169°
2026-05-05 16:46 40.36651 4.03937 11419 ft 312 kts 169°
2026-05-05 16:46 40.34560 4.04680 10985 ft 311 kts 169°
2026-05-05 16:47 40.32475 4.05417 10546 ft 310 kts 169°
2026-05-05 16:47 40.30399 4.06147 10183 ft 307 kts 168°
2026-05-05 16:47 40.28376 4.06863 10058 ft 296 kts 168°
2026-05-05 16:47 40.26422 4.07558 9896 ft 287 kts 168°
2026-05-05 16:48 40.24518 4.08234 9683 ft 280 kts 168°
2026-05-05 16:48 40.22691 4.09117 9335 ft 283 kts 153°
2026-05-05 16:48 40.21148 4.10743 8974 ft 286 kts 141°
2026-05-05 16:48 40.19684 4.12498 8702 ft 282 kts 141°
2026-05-05 16:49 40.18264 4.14215 8569 ft 274 kts 141°
2026-05-05 16:49 40.16889 4.15883 8429 ft 266 kts 141°
2026-05-05 16:49 40.15554 4.17503 8301 ft 258 kts 141°
2026-05-05 16:49 40.14689 4.18548 8215 ft 253 kts 141°
2026-05-05 16:50 40.13388 4.20113 7654 ft 257 kts 141°
2026-05-05 16:50 40.12060 4.21706 7013 ft 261 kts 141°
2026-05-05 16:50 40.10714 4.23323 6385 ft 264 kts 141°
2026-05-05 16:50 40.09301 4.24857 5722 ft 263 kts 152°
2026-05-05 16:51 40.07632 4.25765 5093 ft 259 kts 171°
2026-05-05 16:51 40.05853 4.25901 4446 ft 256 kts 189°
2026-05-05 16:51 40.04091 4.25548 3768 ft 257 kts 191°
2026-05-05 16:51 40.02352 4.25184 3326 ft 249 kts 191°
2026-05-05 16:52 40.00678 4.24838 2980 ft 238 kts 191°
2026-05-05 16:52 39.99085 4.24510 2683 ft 224 kts 191°
2026-05-05 16:52 39.97623 4.24209 2392 ft 202 kts 191°
2026-05-05 16:52 39.96310 4.23939 2173 ft 180 kts 192°
2026-05-05 16:53 39.95117 4.23693 1905 ft 163 kts 191°
2026-05-05 16:53 39.94052 4.23472 1699 ft 148 kts 193°
2026-05-05 16:53 39.93075 4.23272 1507 ft 136 kts 192°
2026-05-05 16:53 39.92160 4.23083 1321 ft 132 kts 192°
2026-05-05 16:54 39.91239 4.22892 1139 ft 133 kts 190°
2026-05-05 16:54 39.90312 4.22701 916 ft 137 kts 191°
2026-05-05 16:54 39.89384 4.22510 746 ft 134 kts 193°
2026-05-05 16:54 39.88466 4.22321 590 ft 135 kts 190°
2026-05-05 16:55 39.87561 4.22136 410 ft 131 kts 189°
2026-05-05 16:55 39.86669 4.21950 303 ft 117 kts 189°
2026-05-05 16:55 39.86163 4.21844 302 ft 34 kts 189°
2026-05-05 16:55 39.85934 4.21798 302 ft 34 kts 189°
2026-05-05 16:56 39.85733 4.21757 298 ft 21 kts 186°
2026-05-05 16:56 39.85571 4.21769 294 ft 26 kts 168°
2026-05-05 16:56 39.85487 4.21807 285 ft 0 kts 158°
2026-05-05 16:57 39.85486 4.21808 285 ft 2 kts 158°
2026-05-05 16:57 39.85452 4.21825 284 ft 8 kts 158°
2026-05-05 16:58 39.85402 4.21887 282 ft 13 kts 92°
2026-05-05 16:58 39.85471 4.21941 284 ft 13 kts
2026-05-05 16:58 39.85562 4.21960 287 ft 13 kts
2026-05-05 16:58 39.85655 4.21979 294 ft 14 kts
2026-05-05 16:59 39.85750 4.21999 292 ft 14 kts
2026-05-05 16:59 39.85846 4.22019 295 ft 14 kts
2026-05-05 16:59 39.85946 4.22039 298 ft 15 kts
2026-05-05 16:59 39.86059 4.22062 300 ft 16 kts
2026-05-05 17:00 39.86141 4.22079 299 ft 11 kts
2026-05-05 17:00 39.86191 4.22132 293 ft 12 kts 88°
2026-05-05 17:00 39.86190 4.22247 291 ft 12 kts 57°
2026-05-05 17:00 39.86278 4.22277 288 ft 14 kts
2026-05-05 17:01 39.86384 4.22300 288 ft 17 kts
2026-05-05 17:01 39.86459 4.22315 288 ft 7 kts
2026-05-05 17:01 39.86471 4.22375 287 ft 10 kts 98°
2026-05-05 17:01 39.86469 4.22398 286 ft 1 kts 98°
2026-05-05 17:02 39.86468 4.22399 286 ft 0 kts 99°